Wind_Speed
37 38 39 41 42 43 44 45 46 47 48 50 51 52 54 55 56 57 59 60 62 63 65 65 66 67 68 69 70 72 73 75 75 74 76 78 80 81 82 83 84 84 84
39 40 41 43 44 44 45 46 48 49 50 52 53 54 56 57 58 60 61 63 64 65 66 66 67 69 70 72 73 75 77 78 79 78 78 79 80 82 83 83 83 83 82
40 42 43 44 44 46 47 48 49 50 52 53 55 56 58 59 61 62 64 65 66 66 67 68 70 71 73 75 76 78 79 80 80 80 79 80 81 82 82 81 79 78 76
41 42 43 44 45 46 47 49 50 52 54 55 57 58 60 62 63 65 66 66 67 68 69 70 72 74 76 78 79 79 80 79 80 80 80 79 79 77 76 74 71 69 68
42 43 44 45 46 47 49 50 52 54 55 57 59 61 62 64 65 66 67 68 68 69 71 73 75 76 78 79 79 79 79 79 79 78 78 76 73 71 69 67 65 63 61
43 44 44 46 47 49 51 52 54 56 58 60 61 63 64 65 67 68 68 69 70 71 73 75 77 78 78 78 78 77 77 77 77 76 74 71 67 66 64 62 61 58 55
43 44 46 47 49 51 52 54 56 58 60 62 63 65 66 67 68 69 70 72 73 74 76 77 77 77 77 77 75 74 74 74 74 73 70 66 64 62 61 58 56 53 50
44 45 47 49 50 52 54 56 58 60 62 63 65 66 66 67 69 71 72 74 75 76 77 77 76 76 75 74 73 73 72 71 69 67 65 63 61 58 56 54 51 47 43
45 47 48 50 52 54 56 58 60 62 63 64 65 66 67 69 71 73 74 75 76 76 76 76 75 74 73 73 73 71 69 66 64 62 61 59 56 53 51 48 45 42 38
47 48 50 52 54 56 58 60 61 63 64 65 66 67 69 70 72 74 76 77 77 76 75 74 73 72 71 71 71 69 66 62 60 58 56 54 51 48 45 43 40 37 34
48 49 51 53 55 57 59 61 63 64 65 66 67 69 71 72 74 76 77 78 77 76 74 72 71 70 69 69 68 65 62 59 56 54 51 48 45 42 40 38 36 33 30
49 51 53 55 57 58 60 62 63 65 66 68 70 71 72 74 75 76 76 77 77 75 72 71 69 68 67 65 62 60 57 56 53 50 46 43 41 38 35 33 31 30 28
51 53 54 56 57 59 61 63 65 67 68 70 72 73 74 75 76 76 76 76 74 73 70 69 68 66 63 60 57 55 54 52 49 45 42 40 37 34 32 30 28 27 27
52 54 55 57 59 61 63 64 66 69 71 73 74 75 76 76 77 77 76 73 71 69 68 67 65 61 58 55 53 52 50 47 44 41 38 35 33 31 29 28 27 26 26
54 56 57 59 61 63 65 67 69 71 73 75 76 77 78 78 77 76 74 71 69 67 66 63 59 55 53 51 50 49 46 43 41 38 35 32 30 29 28 26 26 25 25
56 57 59 61 63 65 67 69 70 73 74 76 78 79 79 78 76 73 71 68 66 64 62 58 55 53 51 49 47 45 42 40 37 35 33 30 29 27 26 26 25 24 24
58 60 62 64 66 68 70 72 73 74 75 77 78 79 77 75 73 70 67 65 63 61 58 55 53 51 49 47 44 41 39 37 35 33 30 29 27 26 26 25 24 23 23
60 62 64 67 69 71 73 74 76 77 77 77 77 76 74 72 69 67 65 62 59 56 54 52 50 49 46 43 40 38 36 34 33 31 29 27 26 25 25 24 24 23 22
62 65 67 69 71 73 75 76 77 77 77 76 74 72 70 67 65 63 61 58 55 52 51 49 48 45 42 39 37 35 33 31 30 29 27 26 25 25 24 23 23 22 20
64 67 69 71 73 74 75 76 76 75 74 73 70 68 65 63 61 58 55 53 51 49 48 46 44 41 38 36 34 32 30 29 28 27 26 25 25 24 23 22 21 20 19
66 68 70 72 74 75 75 75 73 72 70 69 67 64 62 59 56 53 51 49 48 46 44 42 40 37 36 34 32 30 28 28 27 26 25 25 24 23 22 21 20 19 19
68 69 71 73 74 74 73 71 69 68 67 66 63 59 57 55 53 50 49 47 45 43 42 39 37 36 34 32 30 28 27 27 27 26 25 24 23 22 21 20 20 19 19
69 71 73 73 73 71 68 66 66 66 64 61 58 56 54 52 50 48 47 45 43 41 40 38 36 35 33 31 30 28 27 27 26 25 24 23 23 22 21 20 20 19 19
71 72 73 71 69 67 66 65 64 63 60 58 56 53 51 50 48 46 45 43 41 40 38 37 36 34 32 31 29 28 27 27 26 25 24 23 22 22 21 21 20 20 20
71 71 70 68 66 64 63 62 61 60 57 55 53 51 49 48 46 45 43 41 39 38 37 36 35 33 32 31 29 28 28 27 26 25 24 23 23 22 21 21 20 20 20
69 69 67 65 63 62 61 61 59 57 55 52 51 49 48 46 45 43 41 39 37 36 35 35 34 32 31 29 28 27 26 26 25 25 24 23 22 22 22 21 21 21 20
Wind_Direction
289 291 292 293 294 295 296 297 298 298 299 299 300 300 300 300 300 300 301 301 302 302 302 302 301 301 301 300 300 299 299 299 298 297 296 295 294 293 292 291 290 288 286
290 291 292 293 294 295 296 297 298 298 299 300 300 301 301 301 301 302 302 302 302 302 302 302 302 302 301 301 301 300 300 299 299 298 297 296 295 294 293 292 290 288 287
290 292 293 293 294 295 296 297 298 299 300 300 301 301 301 302 302 303 303 303 302 302 302 302 302 302 302 302 301 301 300 300 300 299 298 297 296 296 294 293 291 289 288
291 292 293 293 294 295 296 297 298 299 300 301 301 302 302 303 303 303 303 303 303 303 303 303 303 303 303 302 302 301 301 301 300 300 299 299 298 297 295 293 292 290 288
292 293 293 294 295 296 297 297 299 300 301 301 302 302 303 303 303 303 303 304 304 304 304 303 303 303 303 303 302 302 301 301 301 301 301 300 299 297 296 294 293 291 289
292 293 294 295 296 296 297 298 299 300 301 302 303 303 304 304 304 304 304 304 304 304 304 304 304 304 303 303 303 302 302 302 302 302 301 301 300 298 297 295 294 292 289
293 294 295 295 296 297 298 299 300 301 302 303 303 304 304 304 304 304 304 305 305 305 305 305 304 304 304 303 303 303 303 303 303 302 301 301 300 299 297 295 294 292 290
294 295 295 296 297 298 299 300 301 302 303 304 304 304 305 305 305 305 305 305 306 306 306 305 305 305 304 303 303 303 303 303 302 302 301 301 300 299 297 295 294 292 289
295 296 297 297 298 299 300 301 302 303 304 304 304 305 305 305 305 305 305 306 306 306 306 306 305 305 304 304 304 304 304 303 302 301 301 301 300 298 297 296 294 291 288
296 297 298 299 299 300 301 302 303 303 304 304 305 306 306 306 306 306 306 306 306 306 306 306 305 305 305 305 305 305 304 303 302 301 301 300 299 297 296 295 293 290 288
297 298 299 300 301 301 302 303 303 304 305 305 306 306 306 306 307 307 307 307 307 307 306 305 305 305 305 305 305 304 304 303 302 302 301 300 298 297 295 293 290 288 286
299 299 300 301 301 302 303 304 305 305 305 306 306 307 307 307 307 307 307 307 307 306 306 306 306 306 305 305 304 304 303 303 303 302 301 299 297 295 293 290 288 285 285
300 301 301 302 303 303 304 305 305 306 306 307 307 308 308 308 308 307 307 307 306 306 306 306 306 306 305 305 304 304 304 303 302 301 300 298 296 293 290 288 285 284 284
301 302 302 303 304 305 305 306 306 307 307 308 308 309 309 309 308 307 307 307 306 306 306 307 306 306 305 304 304 304 303 302 301 300 299 297 294 291 289 286 284 283 282
303 303 304 304 305 306 306 307 307 307 308 309 309 309 309 309 308 308 307 307 306 306 306 307 306 305 304 303 303 304 303 301 300 298 297 295 292 290 288 286 284 283 281
304 304 305 305 306 306 307 307 308 308 309 309 309 309 309 309 309 308 308 307 307 307 307 307 307 306 305 304 303 303 301 299 298 297 295 293 290 288 286 285 284 282 280
305 305 306 306 307 307 308 308 308 308 309 309 309 309 309 309 309 308 308 308 307 307 306 306 306 306 305 303 302 301 299 297 296 295 292 290 289 287 285 284 283 281 279
305 306 307 307 308 308 308 309 309 309 309 310 310 309 309 309 308 308 308 307 307 306 306 305 305 305 304 302 301 300 298 295 294 293 290 288 287 285 284 282 281 279 277
306 307 308 308 309 309 309 310 310 310 310 311 310 310 309 309 308 308 308 307 307 306 306 306 305 305 304 302 301 300 297 295 293 290 287 286 286 284 282 281 279 277 274
307 308 309 309 310 310 311 311 311 311 311 312 312 311 310 309 309 309 308 307 307 307 306 306 305 304 303 302 300 298 296 294 292 288 286 286 285 283 280 278 276 273 269
308 309 310 311 311 311 312 312 312 312 313 313 313 312 311 311 311 310 308 308 308 308 307 306 305 303 302 301 298 296 294 292 291 288 285 285 283 280 277 275 272 268 263
309 310 311 311 312 312 312 313 313 314 314 314 313 312 312 312 311 310 310 309 308 307 307 306 305 303 302 299 296 293 291 290 289 288 285 283 281 277 274 273 269 264 259
309 310 311 312 312 313 313 314 314 314 315 315 314 313 313 312 312 311 310 310 308 307 307 306 304 303 301 298 294 291 289 288 287 285 283 281 279 275 272 270 266 260 256
310 311 312 312 313 313 313 314 315 315 315 315 314 314 313 313 312 311 310 309 308 307 306 305 304 302 299 297 293 290 288 286 285 283 281 279 277 274 271 268 264 259 255
310 311 312 313 313 313 314 315 315 315 315 315 314 314 314 314 313 311 310 308 307 307 306 305 304 302 298 295 292 289 287 285 283 280 278 276 274 272 269 265 261 257 254
311 312 312 312 313 314 314 315 315 315 315 314 314 314 314 314 313 312 311 309 308 308 307 306 304 301 298 295 291 288 286 284 281 278 275 272 271 269 266 262 258 255 253
Height
5736 5733 5730 5726 5722 5718 5714 5709 5704 5699 5694 5689 5683 5678 5672 5666 5659 5653 5647 5640 5633 5626 5619 5611 5604 5596 5589 5581 5574 5566 5559 5550 5546 5544 5534 5525 5517 5509 5503 5496 5489 5483 5479
5727 5723 5720 5716 5712 5707 5703 5698 5693 5687 5682 5677 5671 5665 5658 5652 5646 5639 5633 5625 5618 5610 5602 5595 5587 5578 5571 5562 5554 5546 5538 5529 5522 5518 5513 5503 5493 5484 5476 5469 5462 5456 5451
5717 5713 5709 5705 5700 5696 5691 5686 5681 5675 5670 5664 5658 5651 5645 5638 5631 5624 5617 5610 5602 5594 5586 5577 5569 5560 5552 5543 5534 5525 5516 5507 5498 5491 5487 5479 5470 5459 5450 5444 5436 5430 5424
5706 5702 5698 5694 5689 5684 5679 5674 5669 5663 5657 5651 5644 5638 5631 5624 5616 5608 5601 5593 5585 5577 5568 5560 5551 5542 5532 5523 5513 5504 5494 5485 5476 5467 5461 5454 5446 5436 5426 5419 5413 5407 5402
5695 5691 5687 5682 5678 5673 5667 5662 5656 5650 5644 5637 5630 5623 5616 5608 5600 5591 5584 5576 5568 5560 5551 5541 5532 5522 5512 5501 5492 5482 5472 5463 5454 5445 5438 5430 5423 5413 5405 5398 5392 5387 5383
5684 5680 5675 5671 5666 5660 5655 5649 5643 5637 5630 5623 5616 5608 5600 5592 5583 5574 5566 5558 5550 5541 5532 5523 5513 5502 5492 5481 5471 5461 5451 5441 5432 5424 5416 5409 5402 5393 5385 5379 5372 5368 5365
5673 5668 5663 5659 5653 5648 5642 5636 5629 5623 5616 5608 5600 5592 5584 5575 5566 5557 5548 5540 5532 5522 5512 5502 5493 5482 5471 5461 5452 5443 5433 5422 5412 5403 5396 5389 5382 5375 5367 5362 5355 5350 5347
5661 5656 5651 5646 5641 5635 5629 5622 5615 5608 5601 5593 5585 5576 5568 5559 5549 5540 5530 5521 5513 5503 5492 5482 5472 5462 5451 5440 5432 5424 5415 5405 5395 5385 5378 5371 5364 5357 5350 5345 5340 5336 5333
5649 5644 5639 5633 5628 5621 5615 5608 5601 5593 5585 5577 5569 5560 5551 5542 5532 5522 5511 5502 5494 5484 5474 5463 5452 5442 5433 5421 5412 5405 5397 5388 5378 5370 5362 5355 5348 5341 5335 5330 5326 5322 5320
5637 5632 5626 5620 5614 5607 5601 5593 5586 5578 5570 5561 5553 5543 5534 5525 5514 5503 5491 5482 5474 5465 5455 5444 5434 5423 5413 5402 5393 5385 5378 5370 5362 5355 5348 5341 5334 5328 5323 5317 5313 5310 5309
5624 5619 5613 5606 5600 5593 5586 5578 5570 5562 5554 5545 5537 5527 5517 5507 5496 5485 5473 5461 5452 5444 5435 5425 5416 5405 5395 5385 5375 5367 5359 5352 5346 5340 5333 5327 5322 5317 5312 5307 5303 5300 5299
5611 5605 5599 5592 5585 5578 5571 5563 5554 5545 5537 5528 5518 5509 5499 5488 5478 5466 5455 5443 5431 5422 5414 5406 5397 5387 5378 5368 5359 5351 5343 5337 5331 5325 5320 5315 5310 5305 5302 5298 5295 5292 5291
5598 5591 5585 5578 5571 5563 5555 5547 5538 5528 5519 5510 5500 5491 5481 5470 5459 5447 5436 5425 5413 5403 5395 5387 5378 5369 5360 5352 5344 5336 5329 5323 5317 5312 5307 5303 5299 5295 5292 5289 5287 5285 5283
5584 5578 5571 5563 5556 5548 5539 5530 5521 5511 5501 5491 5481 5471 5461 5451 5439 5427 5417 5407 5397 5386 5377 5369 5361 5352 5344 5337 5330 5323 5316 5310 5305 5301 5296 5292 5289 5286 5283 5281 5279 5277 5276
5570 5563 5556 5548 5540 5532 5523 5514 5504 5494 5482 5471 5461 5450 5440 5431 5420 5407 5395 5387 5377 5368 5360 5352 5345 5337 5330 5323 5317 5310 5304 5298 5294 5289 5286 5283 5280 5277 5275 5273 5271 5269 5268
5556 5548 5541 5533 5524 5516 5507 5498 5487 5476 5465 5453 5440 5429 5418 5408 5398 5388 5377 5368 5359 5350 5342 5335 5328 5322 5315 5309 5303 5297 5292 5287 5283 5279 5276 5273 5271 5268 5266 5265 5263 5262 5260
5541 5533 5525 5516 5507 5498 5488 5478 5469 5460 5448 5435 5422 5410 5398 5388 5378 5368 5359 5351 5342 5334 5326 5320 5313 5307 5301 5295 5290 5285 5281 5276 5272 5269 5267 5264 5262 5260 5258 5257 5255 5254 5253
5525 5517 5508 5499 5490 5480 5469 5458 5448 5438 5429 5418 5405 5392 5380 5370 5360 5351 5342 5334 5327 5319 5311 5305 5299 5293 5288 5282 5278 5274 5270 5266 5263 5260 5257 5255 5253 5252 5250 5249 5248 5246 5246
5509 5500 5491 5482 5472 5461 5450 5439 5428 5417 5406 5396 5385 5374 5363 5353 5344 5334 5325 5317 5311 5304 5298 5291 5286 5280 5275 5270 5266 5263 5259 5256 5253 5251 5249 5247 5245 5244 5242 5241 5240 5239 5239
5493 5484 5474 5464 5453 5442 5431 5419 5408 5397 5386 5375 5365 5355 5345 5336 5328 5320 5311 5303 5296 5290 5284 5278 5273 5268 5263 5259 5256 5252 5249 5247 5244 5242 5240 5238 5237 5236 5235 5234 5233 5232 5232
5477 5467 5457 5446 5435 5423 5412 5401 5389 5378 5368 5358 5348 5338 5328 5319 5312 5304 5297 5290 5284 5278 5272 5266 5261 5256 5252 5248 5245 5242 5240 5237 5235 5233 5231 5230 5229 5228 5227 5226 5226 5226 5226
5459 5450 5439 5428 5417 5406 5394 5383 5372 5362 5352 5342 5332 5323 5314 5305 5298 5291 5284 5277 5271 5265 5260 5255 5250 5246 5241 5238 5235 5233 5231 5228 5226 5224 5223 5222 5221 5220 5220 5219 5219 5219 5220
5442 5432 5422 5411 5400 5389 5378 5367 5357 5347 5337 5327 5317 5309 5301 5293 5285 5278 5271 5265 5259 5254 5248 5243 5239 5235 5231 5228 5225 5223 5221 5219 5217 5216 5214 5214 5213 5212 5212 5212 5212 5212 5213
5424 5414 5404 5393 5383 5372 5362 5352 5342 5332 5322 5313 5304 5296 5288 5280 5272 5266 5259 5253 5248 5243 5237 5233 5229 5225 5221 5218 5215 5213 5211 5210 5208 5207 5206 5205 5205 5204 5204 5204 5205 5206 5206
5407 5397 5387 5377 5367 5357 5347 5338 5328 5318 5309 5300 5291 5283 5275 5267 5260 5254 5247 5242 5237 5232 5227 5222 5218 5214 5211 5208 5205 5203 5202 5200 5198 5197 5197 5196 5196 5196 5196 5197 5197 5198 5199
5390 5380 5370 5360 5351 5342 5332 5323 5314 5305 5296 5287 5279 5271 5263 5256 5248 5242 5236 5231 5226 5221 5216 5212 5208 5204 5201 5198 5195 5193 5192 5190 5189 5188 5187 5187 5188 5188 5188 5188 5189 5190 5192